Weather History for Jackson Hawkins Field, MS

Change the Weather History Date:

Thursday, August 29, 2013

  Actual Average (KJAN) Record (KJAN)
Temperature  
Mean Temperature 81 °F 80 °F  
Max Temperature 93 °F 91 °F 104 °F (2000)
Min Temperature 69 °F 70 °F 55 °F (1992)
Degree Days  
Heating Degree Days 0 0  
Month to date heating degree days 0  
Since 1 June heating degree days 0  
Since 1 July heating degree days 0  
Cooling Degree Days 16 15  
Month to date cooling degree days 477  
Year to date cooling degree days 1772  
Since 1 June cooling degree days 1414  
Growing Degree Days 31 (Base 50)    
Moisture  
Dew Point 66 °F    
Average Humidity 63    
Maximum Humidity 87    
Minimum Humidity 37    
Precipitation  
Precipitation 0.00 in 0.11 in 3.90 in (2005)
Month to date precipitation 4.02  
Year to date precipitation 37.06  
Sea Level Pressure  
Sea Level Pressure 30.03 in    
Wind  
Wind Speed 1 mph (NE)    
Max Wind Speed 7 mph    
Max Gust Speed -    
Visibility 9 miles    
Events      
T = Trace of Precipitation, MM = Missing Value Source: NWS Daily Summary

Daily Weather History Graph

Daily Weather History Graph

Search for Another Location

Airport:

Trip Planner

Search our weather history database for the weather conditions in past years. The results will help you decide how hot, cold, wet, or windy it might be!

Date:

Astronomy

Aug. 29, 2013 Rise Set
Actual Time 6:34 AM CDT 7:28 PM CDT
Civil Twilight 6:09 AM CDT 7:53 PM CDT
Nautical Twilight 5:39 AM CDT 8:23 PM CDT
Astronomical Twilight 5:08 AM CDT 8:53 PM CDT
Moon 12:35 AM CDT (8/29) 2:47 PM CDT (8/29)
Length of Visible Light 13h 44m
Length of Day
12h 54m
Last Quarter, 38% of the Moon is Illuminated
Aug 29
Last Quarter
Sep 5
New
Sep 12
First Quarter
Sep 19
Full
Sep 26
Last Quarter

Hourly Weather History & Observations

Time (CDT) Temp. Heat Index Dew Point Humidity Pressure Visibility Wind Dir Wind Speed Gust Speed Precip Events Conditions
12:53 AM 72.0 °F - 66.0 °F 81% 30.04 in 9.0 mi Calm Calm - N/A   Clear
1:53 AM 71.1 °F - 66.0 °F 84% 30.04 in 8.0 mi Calm Calm - N/A   Clear
2:53 AM 71.1 °F - 66.0 °F 84% 30.04 in 8.0 mi Calm Calm - N/A   Clear
3:53 AM 71.1 °F - 66.0 °F 84% 30.04 in 8.0 mi Calm Calm - N/A   Clear
4:53 AM 70.0 °F - 64.9 °F 84% 30.04 in 7.0 mi Calm Calm - N/A   Clear
5:53 AM 69.1 °F - 64.9 °F 87% 30.05 in 6.0 mi Calm Calm - N/A   Clear
6:53 AM 69.1 °F - 64.9 °F 87% 30.06 in 5.0 mi Calm Calm - N/A   Clear
7:53 AM 73.0 °F - 66.0 °F 79% 30.08 in 6.0 mi Calm Calm - N/A   Haze
8:53 AM 79.0 °F - 66.0 °F 64% 30.09 in 9.0 mi Calm Calm - N/A   Partly Cloudy
9:53 AM 82.0 °F 84.5 °F 66.9 °F 60% 30.09 in 10.0 mi Calm Calm - N/A   Clear
10:53 AM 84.9 °F 87.1 °F 66.0 °F 53% 30.09 in 10.0 mi WNW 4.6 mph - N/A   Scattered Clouds
11:53 AM 88.0 °F 89.3 °F 64.0 °F 45% 30.07 in 10.0 mi Variable 3.5 mph - N/A   Clear
12:53 PM 88.0 °F 89.6 °F 64.9 °F 46% 30.05 in 10.0 mi Variable 3.5 mph - N/A   Clear
1:53 PM 89.1 °F 91.0 °F 64.9 °F 45% 30.03 in 10.0 mi NNE 3.5 mph - N/A   Scattered Clouds
2:53 PM 91.9 °F 93.3 °F 64.0 °F 39% 30.01 in 10.0 mi ENE 5.8 mph - N/A   Scattered Clouds
3:53 PM 93.0 °F 94.2 °F 63.0 °F 37% 29.99 in 10.0 mi NE 4.6 mph - N/A   Clear
4:53 PM 91.0 °F 92.6 °F 64.0 °F 41% 29.98 in 10.0 mi East 4.6 mph - N/A   Clear
5:53 PM 91.9 °F 92.5 °F 62.1 °F 37% 29.98 in 10.0 mi NE 6.9 mph - N/A   Clear
6:53 PM 89.1 °F 91.0 °F 64.9 °F 45% 29.98 in 10.0 mi Calm Calm - N/A   Clear
7:53 PM 84.0 °F 86.5 °F 66.9 °F 56% 29.99 in 9.0 mi Calm Calm - N/A   Clear
8:53 PM 81.0 °F 83.8 °F 68.0 °F 65% 29.99 in 10.0 mi Calm Calm - N/A   Clear
9:53 PM 79.0 °F - 68.0 °F 69% 30.00 in 9.0 mi Calm Calm - N/A   Clear
10:53 PM 78.1 °F - 68.0 °F 71% 30.00 in 9.0 mi Calm Calm - N/A   Clear
11:53 PM 77.0 °F - 68.0 °F 74% 30.00 in 8.0 mi Calm Calm - N/A   Clear